Regional Weather Roundup
Issued by NWS Wakefield, VA

Home | Current Version | Previous Version | Text Only | Print | Product List | Glossary On
Versions: 1 2 3 4 5 6 7 8 9 10 11 12 13 14 15 16 17 18 19 20 21 22 23 24 25 26 27 28 29 30 31 32 33 34 35 36 37 38 39 40 41 42 43 44 45 46 47 48 49 50
000
ASUS41 KAKQ 012115
RWRAKQ

REGIONAL WEATHER ROUNDUP
NATIONAL WEATHER SERVICE WAKEFIELD VA
500 PM EDT WED JUL 01 2015

Note: "fair" indicates few or no clouds below 12,000 feet with no
significant weather and/or obstructions to visibility. * = Denotes
station may not report precipitation (e.g., rain,snow,etc.),
thunder or fog.

VAZ042-051-052>054-056-012200-
NORTHERN VIRGINIA

CITY           SKY/WX    TMP DP  RH WIND       PRES   REMARKS
WASH NATIONAL  PTSUNNY   85  67  54 SW14      29.83F
DULLES         PTSUNNY   83  67  58 NW12G20   29.85R
FORT BELVOIR   MOSUNNY   84  67  55 SW8       29.84F
QUANTICO       MOSUNNY   86  65  49 SW8       29.84F
FREDERICKSBRG* MOSUNNY   87  67  50 SW9       29.84F
STAFFORD*      MOSUNNY   83  66  54 S7        29.89S
WARRENTON      MOSUNNY   85  70  59 S8        29.84F
CULPEPER*      MOSUNNY   84  68  58 SW7       29.85F
MANASSAS*      CLOUDY    82  66  57 S10       29.84F
LEESBURG*      MOSUNNY   86  70  58 SW10      29.85F
WINCHESTER     MOSUNNY   84  61  45 NW12G18   29.86F
FRONT ROYAL*   FAIR      82  63  51 W6        29.85S
LURAY*         FAIR      88  59  37 CALM      29.87S
$$

VAZ048-049-060>072-079>083-012200-
CENTRAL AND SOUTH CENTRAL VIRGINIA

CITY           SKY/WX    TMP DP  RH WIND       PRES   REMARKS
RICHMOND       PTSUNNY   87  65  47 W13       29.87F
CHESTERFIELD*  FAIR      86  61  42 SW9       29.89F
PETERSBURG*    MOSUNNY   86  72  64 S7        29.90S
HANOVER        MOSUNNY   86  66  51 SW12      29.88F
TAPPAHANNOCK*  MOSUNNY   85  60  42 SW6       29.87F
QUINTON*       FAIR      85  68  56 SW5       29.87F
CHARLOTTSVILLE PTSUNNY   84  66  54 S9        29.86F
GORDONSVILLE*  FAIR      82  66  57 SW9G17    29.85F
ORANGE*        SUNNY     86  64  48 S9G17     29.87F
LOUISA*        SUNNY     86  66  51 SW7       29.86S
BUMPASS*       FAIR      84  67  56 SW9       29.86F
FARMVILLE*     SUNNY     87  62  42 W6        29.88S
CREWE*         MOCLDY    85  68  58 S5        29.89F
FORT PICKETT*  FAIR      85  67  55 SW8G18    29.90F
CHASE CITY*    FAIR      87  70  57 SW5       29.91F
CLARKSVILLE*   FAIR      86  68  54 W6        29.91S
SOUTH HILL*    SUNNY     84  68  58 CALM      29.97S
LAWRENCEVILLE* NOT AVBL
EMPORIA*         N/A     84  68  58 S6        29.92S
$$

VAZ088>098-012200-
SOUTHEAST VIRGINIA

CITY           SKY/WX    TMP DP  RH WIND       PRES   REMARKS
NORFOLK        SUNNY     87  63  44 SW10      29.88F
VIRGINIA BEACH MOSUNNY   89  66  46 SW14      29.87F
NORFOLK NAVAL  SUNNY     85  66  53 SW12      29.89F
WEST POINT*    SUNNY     88  63  43 SW9G16    29.88S
SALUDA*        FAIR      85  69  57 SW6       29.87S
NEWPORT NEWS   SUNNY     85  68  56 SW12G21   29.89S
LANGLEY AFB    SUNNY     85  68  57 SW12      29.87S
FORT EUSTIS    SUNNY     85  68  56 SW9       29.87S
WILLIAMSBURG*  SUNNY     90  70  51 SW7       29.89S HX  95
HR EXEC AP*    FAIR      84  68  58 SW9       29.91S
FRANKLIN*      MOSUNNY   84  69  58 SW8       29.90S HAZE
WAKEFIELD      MOSUNNY   86  68  54 SW8       29.89F
$$

VAZ020-022-025-037-045-012200-
WEST CENTRAL AND SOUTHWEST VIRGINIA

CITY           SKY/WX    TMP DP  RH WIND       PRES   REMARKS
STAUNTON*      MOSUNNY   87  58  38 W6        29.91S
WAYNESBORO*    FAIR      82  60  47 W9        29.91S
HOT SPRINGS VA MOSUNNY   73  58  60 W9G16     30.03F
LYNCHBURG      SUNNY     83  64  52 SW7       29.91F
DANVILLE       SUNNY     86  65  49 SW8       29.91F
SOUTH BOSTON*  FAIR      84  67  56 MISG      29.91F
MARTINSVILLE   SUNNY     86  63  45 SW3       29.93F
ROANOKE        MOSUNNY   84  61  45 W8        29.93F
BLACKSBURG     MOSUNNY   80  62  55 NW6       30.00S
DUBLIN*        PTSUNNY   77  65  65 S12       29.99S
MARION*        CLOUDY    74  66  76 W7        30.04S
HILLSVILLE*    PTSUNNY   76  61  58 SW8       30.00F
RICHLANDS*     FAIR      72  66  81 SW6       30.03R
WISE*          CLOUDY    72  63  73 SW9       30.04S
ABINGDON*      CLOUDY    76  68  76 W7        30.01S
$$

MDZ021>025-VAZ099-100-012200-
SOUTHERN MARYLAND AND THE DELMARVA PENINSULA

CITY           SKY/WX    TMP DP  RH WIND       PRES   REMARKS
PATUXENT RIVER MOSUNNY   84  66  54 SW12      29.85S
BAY BRIDGE APT   N/A     84  61  45 S8        29.83F
LEONARDTOWN    MOSUNNY   84  63  48 SW7       29.87S
DOVER          MOSUNNY   84  68  59 SW14      29.82S
GEORGETOWN     SUNNY     84  63  49 SW10      29.85F
EASTON         SUNNY     86  66  51 SW10      29.88F
CAMBRIDGE      SUNNY     82  64  54 S6        29.84F
SALISBURY      SUNNY     83  66  56 SW12      29.85F
OCEAN CITY     SUNNY     86  64  47 SW9       29.85S
WALLOPS ISLAND SUNNY     84  66  54 W10       29.86F
ACCOMACK*      SUNNY     84  70  61 SW8       29.87S
$$

NCZ012>017-030>032-012200-
NORTH CENTRAL AND EASTERN NORTH CAROLINA

CITY           SKY/WX    TMP DP  RH WIND       PRES   REMARKS
ROANOKE RAPIDS FAIR      82  70  65 SW10      29.91S
RALEIGH        PTSUNNY   85  68  56 W7        29.93S
ELIZABETH CITY SUNNY     85  70  60 S10       29.90F
AHOSKIE*       SUNNY     83  69  63 CALM      29.90F
EDENTON*         N/A     86  67  52 W6        29.91F
CURRITUCK*     SUNNY     87  61  41 SW6       29.90F
KILL DEVIL HLS SUNNY     89  68  49 W5        29.90F
MANTEO         MOSUNNY   87  68  52 SW9       29.91F
CAPE HATTERAS  SUNNY     81  74  79 SW15G22   29.94S
TARBORO*         N/A     88  65  46 SW7       29.91F
GOLDSBORO      SUNNY     85  71  63 VRB6      29.90F
WASHINGTON     SUNNY     86  69  56 SW9       29.92S
GREENVILLE     SUNNY     86  70  58 SW7       29.93F
NEW BERN       MOSUNNY   86  72  62 W8        29.93F
WILMINGTON     MOSUNNY   87  70  56 W12       29.94S
$$

VAZ048-012200-
ELSEWHERE

CITY           SKY/WX    TMP DP  RH WIND       PRES   REMARKS
HARRISBURG PA  MOSUNNY   81  58  45 W13       29.82F
BALTIMORE      PTSUNNY   83  63  50 W10       29.82S
ANNAPOLIS      MOSUNNY   84  63  49 SW6       29.83S
ANDREWS AFB    MOSUNNY   83  69  62 SW13      29.83
PHILADELPHIA   MOSUNNY   86  60  41 W22G28    29.81S
HENDERSON NC   MOSUNNY   83  62  48 W6        29.93S
GREENSBORO     CLOUDY    87  62  43 SW9       29.92F
ROCKY MOUNT    MOSUNNY   88  67  49 SW9       29.91F
$$

VAZ100-012200-
MARINE

STATION/POSITION TIME  TEMP    WIND        PRES    WAVE   SWELL
                       AIR SEA DIR/SP/G            HT/PER HT/PER
                 (UTC) (F)     (DEG/KT/KT) (MB)    (FT/S) (FT/S)
BRANDYWINE LGT   2000   81 76  280/ 14/ 15 1010.6R
CAPE MAY NJ      2000   80 79  220/  6/  7 1010.2R
LEWES DE         2000   84 71  280/ 12/ 16 1010.4R
15NM E FENWICK I 2050   76 74              1010.3F   5/ 7
OCEAN-CITY-INLET 2000   83 78  270/ 11/ 14 1010.6S
WACHAPREAGUE VA  2000   84 83  270/  6/ 12 1011.7F
GOOSES REEF MD   2100   83 79  230/  6/  8 1011.5F
COVE POINT MD    2000   82     260/  8/ 11 1011.5F
SOLOMONS ISLAND  2000      80                N/A
BISHOPS HEAD MD  2000   81     190/  7/ 10 1011.0F
PINEY POINT MD   2000          270/  5/  7   N/A
CAMBRIDGE MD     2000   83 79  240/  7/ 11 1010.7F
LEWISETTA VA     2000   84 80  250/  9/ 12 1010.7F
RAPPAHANNOCK LGT 2000          190/  8/ 10 1012.0F
STINGRAY PT      2100   84 81  240/ 12/ 14 1011.5S   1
YORK RVR RNG VA  2000   84     280/  8/ 10 1011.1F
YORKTOWN VA      2000   84 81  230/  8/ 11 1011.5F
JAMESTOWN VA     2100   84 83  240/ 10/ 12   N/A
DOMINION TERM VA 2000   83     240/  9/ 10 1011.9F
KIPTOPEKE VA     2000      84  230/ 11/ 12   N/A
CHES BAY BRIDGE  2000   83 78  240/  8/  9 1011.5F
CAPE HENRY VA    2000   86     260/  6/  9 1010.3F
CHESAPEAKE LGHT  2000   78     340/  3/  3 1013.1S
WILLOUBY STN VA  2000   83     240/ 10/ 11 1012.8F
CAPE HENRY BUOY  2028      80                N/A     3/ 8
1ST LANDING BUOY 2100      78              1011.5F   2/ 4
CAPE CHARLES BUO 2026      76                N/A     3/ 8   2/ 8
OFFSHORE WE BUOY 2011      79                N/A     4/ 8   3/ 8
64NM E OF VA BCH 2050   78 77  210/ 10/ 12 1012.2F   5/ 7   5/ 7
DUCK PIER NC     2000   83 65  240/ 12/ 15 1012.2F
44100 DUCK FRF   2054      78                N/A     3/ 8
44056 DUCK FRF   2011      74                N/A     2/ 8
OREGON INLET NC  2000   82 84  190/ 17/ 19 1013.1F
HATTERAS NC      2000   81 81  220/ 13/ 18 1013.6F
DIAMOND SHLS NC  2050   80 83  230/ 19/ 21 1013.6F   5/ 8   2/ 8
CAPE LOOKOUT NC  2100   81     210/ 11/ 15 1013.5F
$$


USA.gov is the U.S. government's official web portal to all federal, state and local government web resources and services.